Bangor, ME

3:15 AM EST on December 16, 2019 (GMT -0500)
Bangor International

Weather History for KBGR - October, 2019

Change the Weather History Date:

Monday, October 7, 2019

  Actual Average Record
Temperature  
Mean Temperature 59 °F 50 °F  
Max Temperature 64 °F 61 °F 84 °F (1946)
Min Temperature 54 °F 40 °F 25 °F (1965)
Degree Days  
Heating Degree Days 6 15  
Month to date heating degree days 108 95  
Since 1 July heating degree days 322 367  
Cooling Degree Days 0 0  
Month to date cooling degree days 0 0  
Year to date cooling degree days 336 317  
Growing Degree Days 9 (Base 50)    
Moisture  
Dew Point 57 °F    
Average Humidity 95    
Maximum Humidity 100    
Minimum Humidity 90    
Precipitation  
Precipitation 0.94 in 0.14 in 1.46 in (1953)
Month to date precipitation 1.45 0.98  
Year to date precipitation 40.47 31.06  
Snow  
Snow 0.00 in 0.00 in 0.00 in (2002)
Month to date snowfall 0.0 0.0  
Since 1 July snowfall 0.0 0.0  
Since 1 September snowfall 0.0 0.0  
Snow Depth 0.00 in    
Sea Level Pressure  
Sea Level Pressure 30.08 in    
Wind  
Wind Speed 9 mph (SSW)    
Max Wind Speed 20 mph    
Max Gust Speed 28 mph    
Visibility 5 miles    
Events Rain    
T = Trace of Precipitation, MM = Missing Value Source: NWS Daily Summary

Daily Weather History Graph

Daily Weather History Graph

Search for Another Location

Airport or City:

Astronomy

Oct. 07, 2019 Rise Set
Actual Time 6:40 AM EDT 6:05 PM EDT
Civil Twilight 6:11 AM EDT 6:34 PM EDT
Nautical Twilight 5:37 AM EDT 7:08 PM EDT
Astronomical Twilight 5:03 AM EDT 7:42 PM EDT
Moon 3:42 PM EDT (10/7) 12:11 AM EDT (10/7)
Length of Visible Light 12h 23m
Length of Day
11h 24m
Waxing Gibbous, 69% of the Moon is Illuminated
Oct 7
Waxing Gibbous
Oct 13
Full
Oct 21
Last Quarter
Oct 27
New
Nov 4
First Quarter

Hourly Weather History & Observations

Time (EDT) Temp. Dew Point Humidity Pressure Visibility Wind Dir Wind Speed Gust Speed Precip Events Conditions
12:53 AM 57.0 °F 55.9 °F 96% 30.16 in 1.5 mi South 8.1 mph - 0.00 in   Light Drizzle
1:16 AM 57.9 °F 57.0 °F 97% 30.16 in 1.5 mi South 8.1 mph - 0.00 in   Light Drizzle
1:53 AM 57.9 °F 57.0 °F 97% 30.15 in 1.5 mi South 8.1 mph - 0.00 in   Overcast
2:27 AM 59.0 °F 57.9 °F 96% 30.14 in 10.0 mi South 10.4 mph - N/A   Overcast
2:53 AM 59.0 °F 57.9 °F 96% 30.13 in 10.0 mi South 10.4 mph - N/A   Overcast
3:53 AM 60.1 °F 57.9 °F 93% 30.11 in 10.0 mi South 9.2 mph - N/A   Overcast
4:03 AM 60.1 °F 59.0 °F 96% 30.11 in 10.0 mi South 10.4 mph - N/A   Overcast
4:53 AM 61.0 °F 59.0 °F 93% 30.11 in 10.0 mi South 8.1 mph - N/A   Overcast
5:53 AM 61.0 °F 59.0 °F 93% 30.10 in 10.0 mi South 9.2 mph - 0.00 in   Light Drizzle
6:53 AM 61.0 °F 59.0 °F 93% 30.10 in 10.0 mi South 8.1 mph - 0.00 in   Overcast
7:53 AM 62.1 °F 59.0 °F 90% 30.09 in 10.0 mi South 11.5 mph - N/A   Overcast
8:24 AM 62.1 °F 60.1 °F 93% 30.09 in 10.0 mi South 12.7 mph - N/A   Overcast
8:53 AM 63.0 °F 60.1 °F 90% 30.08 in 10.0 mi South 12.7 mph - N/A   Overcast
9:53 AM 63.0 °F 60.1 °F 90% 30.07 in 10.0 mi South 16.1 mph - 0.00 in   Overcast
10:20 AM 63.0 °F 60.1 °F 90% 30.07 in 10.0 mi South 12.7 mph - N/A   Overcast
10:53 AM 64.0 °F 61.0 °F 90% 30.06 in 10.0 mi South 15.0 mph - 0.00 in Rain Light Rain
11:53 AM 63.0 °F 60.1 °F 90% 30.04 in 10.0 mi South 11.5 mph 21.9 mph 0.00 in   Overcast
12:24 PM 63.0 °F 59.0 °F 87% 30.03 in 10.0 mi South 15.0 mph 20.7 mph N/A   Overcast
12:53 PM 63.0 °F 60.1 °F 90% 30.02 in 3.0 mi SSW 15.0 mph 23.0 mph 0.03 in Rain Light Rain
1:37 PM 63.0 °F 60.1 °F 90% 30.04 in 2.5 mi West 5.8 mph - 0.11 in Rain Light Rain
1:42 PM 62.1 °F 60.1 °F 93% 30.04 in 1.2 mi West 4.6 mph - 0.15 in Rain Light Rain
1:53 PM 62.1 °F 60.1 °F 93% 30.04 in 1.0 mi NW 11.5 mph - 0.23 in Rain Light Rain
2:06 PM 60.1 °F 59.0 °F 96% 30.04 in 2.0 mi NW 11.5 mph - 0.05 in Rain Light Rain
2:13 PM 60.1 °F 57.9 °F 93% 30.04 in 2.0 mi NNW 11.5 mph - 0.07 in Rain Light Rain
2:53 PM 57.9 °F 57.0 °F 97% 30.06 in 2.0 mi NNW 12.7 mph - 0.15 in Rain Light Rain
3:30 PM 57.0 °F 55.0 °F 93% 30.06 in 1.8 mi NW 8.1 mph - 0.03 in Rain Light Rain
3:49 PM 55.4 °F 55.4 °F 100% 30.06 in 2.0 mi NW 8.1 mph - 0.04 in Rain Light Rain
3:53 PM 55.9 °F 55.0 °F 97% 30.06 in 2.0 mi NW 8.1 mph - 0.04 in Rain Light Rain
4:53 PM 55.9 °F 55.0 °F 97% 30.07 in 2.0 mi NNW 8.1 mph - 0.06 in Rain Light Rain
5:37 PM 55.9 °F 55.0 °F 97% 30.08 in 2.0 mi North 5.8 mph - 0.07 in Rain Rain
5:53 PM 55.9 °F 54.0 °F 93% 30.08 in 2.0 mi North 4.6 mph - 0.08 in Rain Rain
6:53 PM 55.0 °F 54.0 °F 96% 30.09 in 2.0 mi North 4.6 mph - 0.04 in Rain Light Rain
7:53 PM 55.0 °F 53.1 °F 93% 30.10 in 2.0 mi Calm Calm - 0.10 in Rain Rain
8:09 PM 54.0 °F 53.1 °F 97% 30.09 in 5.0 mi Calm Calm - 0.03 in Rain Rain
8:30 PM 54.0 °F 54.0 °F 100% 30.09 in 3.0 mi SE 3.5 mph - 0.04 in Rain Light Rain
8:44 PM 54.0 °F 54.0 °F 100% 30.08 in 2.0 mi SE 4.6 mph - 0.05 in Rain Light Rain
8:53 PM 54.0 °F 54.0 °F 100% 30.09 in 2.0 mi South 3.5 mph - 0.05 in Rain Light Rain
9:53 PM 54.0 °F 54.0 °F 100% 30.11 in 2.0 mi SW 3.5 mph - 0.05 in Rain Light Rain
10:31 PM 54.0 °F 53.1 °F 97% 30.11 in 2.0 mi Calm Calm - 0.05 in Rain Light Rain
10:53 PM 54.0 °F 53.1 °F 97% 30.10 in 2.0 mi South 5.8 mph - 0.07 in Rain Light Rain
11:31 PM 54.0 °F 53.1 °F 97% 30.09 in 5.0 mi Calm Calm - 0.03 in Rain Light Rain
11:53 PM 54.0 °F 53.1 °F 97% 30.13 in 2.0 mi SW 6.9 mph - 0.03 in   Overcast